{"data":{"norad_id":61534,"epoch":"2026-09-21T13:54:17.088480Z","epoch_age_seconds":98827,"freshness":"FRESH","line1":"1 61534U 24184C   26264.57936445 -.00001094  00000+0 -41752-5 0  9990","line2":"2 61534  53.1596 350.6272 0000965  67.5832 292.5288 15.69703665111182","mean_motion":15.69703665,"eccentricity":9.65e-5,"inclination_deg":53.1596,"raan_deg":350.6272,"arg_perigee_deg":67.5832,"mean_anomaly_deg":292.5288,"bstar":-4.1752e-6,"rev_number":11118,"period_min":91.737060447011,"perigee_km":359.09467322453,"apogee_km":360.39508442715,"semimajor_km":6737.8818788258,"source":"CELESTRAK","updated_at":"2026-09-22T09:00:49.363979Z"}}